• En España
  • Lista de países
  • Para 7 días
  • Temperatura del agua
  • Mapa Satelital
  • El tiempo en el mapa
  • Informadores
  • user-avatar
    Iniciar sesión

    Tiempo cada hora Canberra

    Hoy, 19 Julio, Jueves

    Tiempo Temperatura Precipitaciones Viento Presión Humedad
    00:00 +2°C° 0 mm 3 mps 709 mmHg 78%
    01:00 +2°C° 0 mm 3 mps 709 mmHg 76%
    02:00 +2°C° 0 mm 3 mps 709 mmHg 75%
    03:00 +2°C° 0 mm 3 mps 708 mmHg 74%
    04:00 +1°C° 0 mm 3 mps 708 mmHg 74%
    05:00 +1°C° 0 mm 3 mps 708 mmHg 74%
    06:00 +1°C° 0 mm 3 mps 708 mmHg 74%
    07:00 +1°C° 0 mm 3 mps 707 mmHg 75%
    08:00 +3°C° 0 mm 3 mps 707 mmHg 66%
    09:00 +6°C° 0 mm 4 mps 707 mmHg 57%
    10:00 +8°C° 0 mm 4 mps 708 mmHg 49%
    11:00 +10°C° 0 mm 4 mps 707 mmHg 46%
    12:00 +12°C° 0 mm 5 mps 707 mmHg 43%
    13:00 +13°C° 0 mm 5 mps 707 mmHg 40%
    14:00 +12°C° 0 mm 5 mps 706 mmHg 43%
    15:00 +12°C° 0 mm 5 mps 706 mmHg 46%
    16:00 +12°C° 0 mm 4 mps 705 mmHg 49%
    17:00 +10°C° 0 mm 4 mps 705 mmHg 56%
    18:00 +7°C° 0 mm 4 mps 705 mmHg 63%
    19:00 +7°C° 0 mm 3 mps 704 mmHg 69%
    20:00 +7°C° 0 mm 3 mps 704 mmHg 67%
    21:00 +7°C° 0 mm 3 mps 703 mmHg 64%
    22:00 +6°C° 0 mm 4 mps 703 mmHg 62%
    23:00 +6°C° 0 mm 4 mps 702 mmHg 61%

    Mañana, 20 Julio, Viernes

    Tiempo Temperatura Precipitaciones Viento Presión Humedad
    00:00 +7°C° 0 mm 4 mps 702 mmHg 60%
    01:00 +7°C° 0 mm 4 mps 701 mmHg 58%
    02:00 +7°C° 0,1 mm 4 mps 701 mmHg 60%
    03:00 +7°C° 0,1 mm 4 mps 701 mmHg 62%
    04:00 +7°C° 0,1 mm 4 mps 701 mmHg 64%
    05:00 +6°C° 0,3 mm 4 mps 701 mmHg 71%
    06:00 +5°C° 0,3 mm 4 mps 701 mmHg 78%
    07:00 +3°C° 0,3 mm 5 mps 702 mmHg 84%
    08:00 +3°C° 0,4 mm 5 mps 702 mmHg 82%
    09:00 +3°C° 0,4 mm 5 mps 703 mmHg 80%
    10:00 +3°C° 0,4 mm 5 mps 704 mmHg 78%
    11:00 +4°C° 0 mm 6 mps 704 mmHg 71%
    12:00 +4°C° 0 mm 6 mps 704 mmHg 65%
    13:00 +5°C° 0 mm 6 mps 704 mmHg 59%
    14:00 +5°C° 0 mm 6 mps 704 mmHg 59%
    15:00 +4°C° 0 mm 6 mps 705 mmHg 59%
    16:00 +4°C° 0 mm 6 mps 705 mmHg 58%
    17:00 +3°C° 0 mm 6 mps 705 mmHg 63%
    18:00 +3°C° 0 mm 5 mps 706 mmHg 68%
    19:00 +2°C° 0 mm 5 mps 707 mmHg 73%
    20:00 +2°C° 0 mm 5 mps 707 mmHg 73%
    21:00 +2°C° 0 mm 5 mps 708 mmHg 73%
    22:00 +2°C° 0 mm 5 mps 708 mmHg 73%
    23:00 +2°C° 0 mm 5 mps 708 mmHg 75%

    Pasado mañana, 21 Julio, Sábado

    Tiempo Temperatura Precipitaciones Viento Presión Humedad
    00:00 +3°C° 0 mm 4 mps 709 mmHg 76%
    01:00 +1°C° 0 mm 4 mps 709 mmHg 77%
    02:00 +1°C° 0 mm 4 mps 709 mmHg 79%
    03:00 +1°C° 0 mm 4 mps 710 mmHg 80%
    04:00 +1°C° 0 mm 4 mps 710 mmHg 82%
    05:00 +1°C° 0 mm 3 mps 710 mmHg 84%
    06:00 +1°C° 0 mm 3 mps 711 mmHg 86%
    07:00 +1°C° 0 mm 2 mps 711 mmHg 89%
    08:00 +3°C° 0 mm 2 mps 712 mmHg 81%
    09:00 +4°C° 0 mm 3 mps 712 mmHg 73%
    10:00 +5°C° 0 mm 3 mps 713 mmHg 65%
    11:00 +7°C° 0 mm 3 mps 713 mmHg 60%
    12:00 +8°C° 0 mm 3 mps 712 mmHg 56%
    13:00 +9°C° 0 mm 3 mps 712 mmHg 52%
    14:00 +9°C° 0 mm 3 mps 712 mmHg 54%
    15:00 +8°C° 0 mm 3 mps 712 mmHg 56%
    16:00 +8°C° 0 mm 3 mps 712 mmHg 58%
    17:00 +5°C° 0 mm 3 mps 712 mmHg 67%
    18:00 +4°C° 0 mm 2 mps 713 mmHg 77%
    19:00 +2°C° 0 mm 2 mps 713 mmHg 86%
    20:00 +2°C° 0 mm 1 mps 714 mmHg 85%
    21:00 +2°C° 0 mm 1 mps 714 mmHg 85%
    22:00 +2°C° 0 mm 1 mps 714 mmHg 85%
    23:00 +1°C° 0 mm 1 mps 714 mmHg 84%

    22 Julio, Domingo

    Tiempo Temperatura Precipitaciones Viento Presión Humedad
    00:00 +1°C° 0 mm 1 mps 714 mmHg 83%
    01:00 +1°C° 0 mm 1 mps 714 mmHg 83%
    02:00 +1°C° 0 mm 1 mps 714 mmHg 84%
    03:00 0°C° 0 mm 1 mps 714 mmHg 85%
    04:00 0°C° 0 mm 1 mps 714 mmHg 87%
    05:00 0°C° 0 mm 1 mps 714 mmHg 87%
    06:00 -1°C° 0 mm 0 mps 714 mmHg 87%
    07:00 -1°C° 0 mm 0 mps 714 mmHg 88%
    08:00 +2°C° 0 mm 0 mps 714 mmHg 76%
    09:00 +5°C° 0 mm 1 mps 715 mmHg 65%
    10:00 +8°C° 0 mm 1 mps 715 mmHg 54%
    11:00 +9°C° 0 mm 1 mps 714 mmHg 51%
    12:00 +9°C° 0 mm 2 mps 714 mmHg 47%
    13:00 +12°C° 0 mm 2 mps 713 mmHg 44%
    14:00 +10°C° 0 mm 2 mps 713 mmHg 47%
    15:00 +10°C° 0 mm 2 mps 713 mmHg 51%
    16:00 +9°C° 0 mm 2 mps 712 mmHg 54%
    17:00 +7°C° 0 mm 2 mps 712 mmHg 65%
    18:00 +6°C° 0 mm 1 mps 712 mmHg 76%
    19:00 +4°C° 0 mm 1 mps 712 mmHg 87%
    20:00 +3°C° 0 mm 1 mps 713 mmHg 88%
    21:00 +3°C° 0 mm 1 mps 713 mmHg 90%
    22:00 +2°C° 0 mm 1 mps 713 mmHg 91%
    23:00 +2°C° 0 mm 1 mps 713 mmHg 91%

    23 Julio, Lunes

    Tiempo Temperatura Precipitaciones Viento Presión Humedad
    00:00 +2°C° 0 mm 1 mps 712 mmHg 90%
    01:00 +2°C° 0 mm 1 mps 712 mmHg 89%
    02:00 +2°C° 0 mm 1 mps 712 mmHg 89%
    03:00 +2°C° 0 mm 1 mps 711 mmHg 89%
    04:00 +1°C° 0 mm 1 mps 711 mmHg 89%
    05:00 +1°C° 0 mm 1 mps 711 mmHg 89%
    06:00 +1°C° 0 mm 1 mps 711 mmHg 89%
    07:00 +1°C° 0 mm 1 mps 711 mmHg 89%
    08:00 +3°C° 0 mm 2 mps 711 mmHg 78%
    09:00 +5°C° 0 mm 2 mps 711 mmHg 67%
    10:00 +8°C° 0 mm 3 mps 712 mmHg 57%
    11:00 +9°C° 0 mm 3 mps 711 mmHg 53%
    12:00 +10°C° 0 mm 4 mps 710 mmHg 48%
    13:00 +12°C° 0 mm 4 mps 709 mmHg 44%
    14:00 +11°C° 0 mm 4 mps 709 mmHg 47%
    15:00 +11°C° 0 mm 4 mps 709 mmHg 49%
    16:00 +11°C° 0 mm 4 mps 708 mmHg 52%
    17:00 +9°C° 0 mm 3 mps 709 mmHg 60%
    18:00 +7°C° 0 mm 3 mps 709 mmHg 68%
    19:00 +4°C° 0 mm 3 mps 709 mmHg 76%
    20:00 +4°C° 0 mm 3 mps 709 mmHg 74%
    21:00 +4°C° 0 mm 3 mps 709 mmHg 72%
    22:00 +4°C° 0 mm 3 mps 708 mmHg 70%
    23:00 +4°C° 0 mm 3 mps 708 mmHg 66%

    24 Julio, Martes

    Tiempo Temperatura Precipitaciones Viento Presión Humedad
    00:00 +4°C° 0 mm 3 mps 708 mmHg 63%
    01:00 +5°C° 0 mm 3 mps 708 mmHg 60%
    02:00 +5°C° 0,2 mm 4 mps 708 mmHg 62%
    03:00 +5°C° 0,2 mm 4 mps 708 mmHg 65%
    04:00 +5°C° 0,2 mm 5 mps 708 mmHg 68%
    05:00 +4°C° 0,1 mm 4 mps 708 mmHg 74%
    06:00 +4°C° 0,1 mm 4 mps 708 mmHg 80%
    07:00 +3°C° 0,1 mm 3 mps 708 mmHg 86%
    08:00 +5°C° 0 mm 3 mps 709 mmHg 82%
    09:00 +6°C° 0 mm 4 mps 709 mmHg 78%
    10:00 +8°C° 0 mm 4 mps 710 mmHg 74%
    11:00 +10°C° 0 mm 4 mps 709 mmHg 70%
    12:00 +11°C° 0 mm 4 mps 709 mmHg 67%
    13:00 +12°C° 0 mm 4 mps 709 mmHg 64%
    14:00 +12°C° 0 mm 4 mps 709 mmHg 64%
    15:00 +12°C° 0 mm 3 mps 709 mmHg 65%
    16:00 +11°C° 0 mm 3 mps 710 mmHg 65%
    17:00 +9°C° 0 mm 3 mps 710 mmHg 74%
    18:00 +7°C° 0 mm 2 mps 710 mmHg 84%
    19:00 +5°C° 0 mm 2 mps 711 mmHg 93%
    20:00 +5°C° 0 mm 2 mps 711 mmHg 94%
    21:00 +4°C° 0 mm 2 mps 711 mmHg 94%
    22:00 +4°C° 0 mm 1 mps 712 mmHg 95%
    23:00 +4°C° 0 mm 1 mps 711 mmHg 94%
    Mostrar más